This is the latest recevied weather packets stored in our database for station/object KN6WGU. If no packets are shown the sender has not sent any weather packets the latest 10 day(s).
| Time | Temp. | Humidity | Pressure | Rain* | Wind** | Luminosity | Snow |
|---|---|---|---|---|---|---|---|
| 1788039653 | 26.67° C | 60% | 1013.7 hPa | 0 mm | - | 112 W/m² | - |
| 1788039347 | 26.67° C | 59% | 1013.6 hPa | 0 mm | - | 113 W/m² | - |
| 1788039042 | 26.67° C | 61% | 1013.8 hPa | 0 mm | - | 112 W/m² | - |
| 1788038738 | 26.11° C | 59% | 1013.8 hPa | 0 mm | - | 118 W/m² | - |
| 1788038432 | 26.67° C | 58% | 1013.9 hPa | 0 mm | - | 127 W/m² | - |
| 1788038127 | 26.67° C | 57% | 1013.7 hPa | 0 mm | - | 118 W/m² | - |
| 1788037827 | 27.22° C | 54% | 1013.7 hPa | 0 mm | - | 121 W/m² | - |
| 1788037521 | 27.22° C | 59% | 1013.8 hPa | 0 mm | - | 130 W/m² | - |
| 1788037217 | 26.67° C | 56% | 1013.7 hPa | 0 mm | - | 138 W/m² | - |
| 1788036916 | 27.22° C | 56% | 1013.8 hPa | 0 mm | - | 139 W/m² | - |
| 1788036613 | 26.67° C | 56% | 1014 hPa | 0 mm | - | 135 W/m² | - |
| 1788036309 | 26.67° C | 60% | 1013.8 hPa | 0 mm | - | 153 W/m² | - |
| 1788036003 | 27.22° C | 55% | 1014 hPa | 0 mm | - | 168 W/m² | - |
| 1788035703 | 27.22° C | 58% | 1014 hPa | 0 mm | - | 295 W/m² | - |
| 1788035398 | 26.67° C | 55% | 1014 hPa | 0 mm | - | 269 W/m² | - |
| 1788035093 | 26.67° C | 57% | 1014 hPa | 0 mm | - | 210 W/m² | - |
| 1788034789 | 26.67° C | 58% | 1014.1 hPa | 0 mm | - | 199 W/m² | - |
| 1788034486 | 27.22° C | 56% | 1014.5 hPa | 0 mm | - | 184 W/m² | - |
| 1788034182 | 27.78° C | 53% | 1014.3 hPa | 0 mm | - | 178 W/m² | - |
| 1788033880 | 28.33° C | 51% | 1014.4 hPa | 0 mm | - | 296 W/m² | - |
| 1788033579 | 28.89° C | 52% | 1014.4 hPa | 0 mm | - | 374 W/m² | - |
| 1788033274 | 28.33° C | 55% | 1014.3 hPa | 0 mm | - | 514 W/m² | - |
| 1788032971 | 28.33° C | 52% | 1014.3 hPa | 0 mm | - | 358 W/m² | - |
| 1788032670 | 28.89° C | 51% | 1014.5 hPa | 0 mm | - | 539 W/m² | - |
| 1788032365 | 28.89° C | 49% | 1014.4 hPa | 0 mm | - | 584 W/m² | - |
* Rain latest hour (hover to see other rain measurements)
** Current wind speed in m/s (hover to see current wind gust speed)